086  
ASUS42 KKEY 181710  
RWRKEY  
 
FLORIDA REGIONAL WEATHER ROUNDUP FOR THE FLORIDA KEYS  
NATIONAL WEATHER SERVICE KEY WEST FLORIDA  
1200 PM EST WED JAN 18 2017  
   
..SOUTH FLORIDA AND THE KEYS
 
 
 
CITY SKY/WX TMP DP RH WIND PRES REMARKS
 
FORT MYERS MOSUNNY 81 62 52 SW7 30.17F  
SW REGIONAL AP MOSUNNY 79 60 52 SW9 30.17F  
NAPLES MOSUNNY 81 61 50 S8 30.17F  
MIAMI CLOUDY 80 62 54 SW8 30.17F  
WEST KENDALL MOSUNNY 80 61 52 VRB5 30.16F  
HOMESTEAD MOSUNNY 81 65 59 VRB7 30.16F  
MARATHON SUNNY 83 64 52 SE7 30.16F  
BOCA CHICA NAS MOSUNNY 80 65 59 SE12 30.16F  
KEY WEST INTL MOSUNNY 79 66 64 SE13 30.17F  
   
..INTERNATIONAL WEATHER
 
 
 
CITY SKY/WX TMP DP RH WIND PRES REMARKS
 
NASSAU BAHAMAS PTSUNNY 79 63 57 E5 30.16F  
CANCUN MEXICO MOSUNNY 82 70 65 SE15 30.13S  
COZUMEL MEXICO MOSUNNY 82 70 65 SE10 30.10  
 
ADJACENT COASTAL WATERS...  
 
STATION/POSITION TIME SKY/WX TEMP WIND PRES WAVE
 
AIR SEA DIR/SP/G HT/PER  
(UTC) (F) (DEG/KT/KT) (MB) (FT/S)  
PULASKI SHOAL LI 1700 75 110/ 12/ 13 1021.0F  
SAND KEY 1650 76 140/ 12/ 14 1022.0F  
LONG KEY 1600 76 72 90/ 4/ 5 1022.6F  
MOLASSES REEF NOT AVBL  
FOWEY ROCKS 1700 77 76 180/ 6/ 8 1022.0F  
 

 
 
 
CLICK HERE TO GO TO PREVIOUS BULLETINS.

The Nexlab FL Page Main Text Page